�������l�o���
Date,Time,MP-1(��Sv/h),MP-2(��Sv/h),MP-3(��Sv/h),MP-4(��Sv/h),MP-5(��Sv/h),MP-6(��Sv/h),MP-7(��Sv/h),MP-8(��Sv/h),����,����(m/s),���J
2024/05/15,00:00,0.489,0.744,0.473,0.918,0.660,0.306,0.544,0.507,��,0.6,��
2024/05/15,00:10,0.489,0.745,0.471,0.920,0.660,0.307,0.544,0.507,-,CALM,��
2024/05/15,00:20,0.488,0.746,0.474,0.919,0.661,0.306,0.544,0.507,-,CALM,��
2024/05/15,00:30,0.488,0.745,0.473,0.918,0.661,0.308,0.545,0.506,���k��,0.6,��
2024/05/15,00:40,0.488,0.744,0.473,0.919,0.661,0.308,0.543,0.506,�k��,1.2,��
2024/05/15,00:50,0.488,0.745,0.472,0.919,0.661,0.308,0.543,0.507,���k��,1.2,��
2024/05/15,01:00,0.489,0.746,0.471,0.918,0.660,0.307,0.545,0.506,���k��,1.7,��
2024/05/15,01:10,0.488,0.746,0.473,0.917,0.660,0.307,0.544,0.508,���k��,0.9,��
2024/05/15,01:20,0.487,0.745,0.473,0.918,0.661,0.307,0.543,0.506,�k��,0.9,��
2024/05/15,01:30,0.487,0.746,0.474,0.919,0.661,0.308,0.544,0.508,�k��,1.2,��
2024/05/15,01:40,0.487,0.745,0.474,0.921,0.662,0.308,0.544,0.507,�k��,0.9,��
2024/05/15,01:50,0.487,0.746,0.472,0.920,0.660,0.307,0.544,0.506,-,CALM,��
2024/05/15,02:00,0.487,0.745,0.473,0.919,0.661,0.307,0.544,0.507,�k�k��,0.8,��
2024/05/15,02:10,0.487,0.746,0.472,0.919,0.661,0.308,0.543,0.506,-,CALM,��
2024/05/15,02:20,0.489,0.746,0.472,0.919,0.660,0.309,0.544,0.507,-,CALM,��
2024/05/15,02:30,0.487,0.746,0.472,0.920,0.660,0.308,0.544,0.507,-,CALM,��
2024/05/15,02:40,0.488,0.746,0.473,0.918,0.660,0.308,0.543,0.507,-,CALM,��
2024/05/15,02:50,0.489,0.744,0.474,0.919,0.661,0.308,0.543,0.505,�k�k��,0.6,��
2024/05/15,03:00,0.488,0.747,0.472,0.918,0.660,0.307,0.544,0.507,�k�k��,0.8,��
2024/05/15,03:10,0.489,0.744,0.473,0.918,0.660,0.307,0.544,0.506,�k,0.8,��
2024/05/15,03:20,0.488,0.744,0.473,0.919,0.660,0.308,0.544,0.507,-,CALM,��
2024/05/15,03:30,0.489,0.745,0.472,0.918,0.660,0.308,0.545,0.507,-,CALM,��
2024/05/15,03:40,0.487,0.744,0.473,0.919,0.661,0.308,0.545,0.507,-,CALM,��
2024/05/15,03:50,0.487,0.745,0.472,0.919,0.660,0.307,0.544,0.507,-,CALM,��
2024/05/15,04:00,0.489,0.745,0.471,0.919,0.661,0.307,0.542,0.506,-,CALM,��
2024/05/15,04:10,0.489,0.743,0.472,0.917,0.660,0.308,0.544,0.506,�k,0.8,��
2024/05/15,04:20,0.487,0.745,0.472,0.919,0.661,0.307,0.544,0.506,�k�k��,0.8,��
2024/05/15,04:30,0.489,0.746,0.472,0.918,0.661,0.308,0.542,0.506,�k��,0.9,��
2024/05/15,04:40,0.489,0.744,0.473,0.919,0.660,0.307,0.544,0.507,���k��,0.6,��
2024/05/15,04:50,0.487,0.745,0.472,0.919,0.661,0.309,0.544,0.507,��,0.9,��
2024/05/15,05:00,0.488,0.744,0.473,0.920,0.661,0.307,0.543,0.507,���k��,0.6,��
2024/05/15,05:10,0.489,0.747,0.471,0.918,0.661,0.308,0.543,0.507,���쓌,0.6,��
2024/05/15,05:20,0.489,0.744,0.472,0.918,0.660,0.308,0.543,0.506,-,CALM,��
2024/05/15,05:30,0.489,0.744,0.472,0.919,0.660,0.308,0.544,0.507,-,CALM,��
2024/05/15,05:40,0.488,0.745,0.474,0.920,0.662,0.308,0.543,0.507,-,CALM,��
2024/05/15,05:50,0.489,0.744,0.473,0.920,0.662,0.307,0.543,0.507,���k��,0.6,��
2024/05/15,06:00,0.488,0.745,0.473,0.918,0.661,0.308,0.544,0.507,�k��,0.9,��
2024/05/15,06:10,0.488,0.746,0.473,0.918,0.661,0.309,0.545,0.506,�k,0.9,��
2024/05/15,06:20,0.489,0.747,0.474,0.919,0.660,0.308,0.544,0.507,�k,1.1,��
2024/05/15,06:30,0.488,0.746,0.473,0.919,0.661,0.307,0.544,0.506,�k�k��,1.2,��
2024/05/15,06:40,0.489,0.746,0.474,0.918,0.663,0.308,0.544,0.508,�k�k��,1.5,��
2024/05/15,06:50,0.489,0.745,0.473,0.918,0.660,0.307,0.544,0.508,�k�k��,1.2,��
2024/05/15,07:00,0.489,0.746,0.475,0.919,0.662,0.307,0.544,0.507,�k�k��,0.8,��
2024/05/15,07:10,0.489,0.745,0.473,0.920,0.662,0.307,0.544,0.507,���쓌,0.9,��
2024/05/15,07:20,0.489,0.744,0.472,0.920,0.660,0.306,0.546,0.507,��,0.8,��
2024/05/15,07:30,0.490,0.745,0.475,0.921,0.662,0.307,0.544,0.509,�쓌,1.2,��
2024/05/15,07:40,0.489,0.746,0.473,0.919,0.660,0.307,0.543,0.508,�쓌,1.4,��
2024/05/15,07:50,0.490,0.741,0.473,0.921,0.661,0.306,0.542,0.508,�쓌,1.4,��
2024/05/15,08:00,0.489,0.746,0.474,0.923,0.663,0.307,0.544,0.506,�쓌,1.5,��
2024/05/15,08:10,0.487,0.744,0.473,0.920,0.661,0.306,0.543,0.506,�쓌,1.9,��
2024/05/15,08:20,0.487,0.747,0.473,0.922,0.661,0.307,0.542,0.507,�쓌,2.2,��
2024/05/15,08:30,0.488,0.744,0.473,0.920,0.661,0.305,0.542,0.506,�쓌,2.0,��
2024/05/15,08:40,0.488,0.744,0.473,0.920,0.660,0.306,0.544,0.507,�쓌,2.3,��
2024/05/15,08:50,0.487,0.746,0.474,0.921,0.661,0.306,0.542,0.506,�쓌,1.9,��
2024/05/15,09:00,0.489,0.747,0.473,0.921,0.660,0.306,0.542,0.506,�쓌,2.3,��
2024/05/15,09:10,0.489,0.748,0.472,0.920,0.660,0.306,0.542,0.505,�쓌,2.3,��
2024/05/15,09:20,0.488,0.747,0.472,0.919,0.659,0.305,0.541,0.506,�쓌,2.6,��
2024/05/15,09:30,0.491,0.746,0.472,0.921,0.661,0.306,0.542,0.507,�쓌,2.6,��
2024/05/15,09:40,0.490,0.748,0.472,0.921,0.663,0.307,0.541,0.508,�쓌,2.3,��
2024/05/15,09:50,0.491,0.748,0.472,0.922,0.663,0.307,0.541,0.507,�쓌,2.5,��
2024/05/15,10:00,0.489,0.746,0.474,0.923,0.663,0.306,0.543,0.507,�쓌,2.6,��
2024/05/15,10:10,0.491,0.747,0.474,0.922,0.664,0.307,0.542,0.506,���쓌,2.6,��
2024/05/15,10:20,0.492,0.749,0.474,0.923,0.662,0.306,0.542,0.506,�쓌,2.5,��
2024/05/15,10:30,0.492,0.749,0.474,0.924,0.662,0.307,0.541,0.507,�쓌,3.6,��
2024/05/15,10:40,0.489,0.748,0.474,0.925,0.663,0.307,0.541,0.509,�쓌,3.2,��
2024/05/15,10:50,0.491,0.749,0.474,0.922,0.664,0.307,0.542,0.508,�쓌,2.5,��
2024/05/15,11:00,0.493,0.748,0.474,0.920,0.663,0.307,0.542,0.507,�쓌,2.6,��
2024/05/15,11:10,0.493,0.752,0.474,0.922,0.664,0.307,0.543,0.508,���쓌,2.6,��
2024/05/15,11:20,0.493,0.751,0.474,0.921,0.665,0.308,0.543,0.509,�쓌,3.0,��
2024/05/15,11:30,0.493,0.751,0.475,0.921,0.664,0.308,0.542,0.508,�쓌,2.0,��
2024/05/15,11:40,0.492,0.750,0.474,0.919,0.666,0.308,0.543,0.509,�쓌,2.6,��
2024/05/15,11:50,0.493,0.752,0.474,0.920,0.664,0.307,0.541,0.508,���쓌,3.6,��
2024/05/15,12:00,0.492,0.750,0.474,0.918,0.664,0.307,0.542,0.508,���쓌,2.6,��
2024/05/15,12:10,0.491,0.751,0.476,0.920,0.665,0.308,0.543,0.509,���쓌,2.3,��
2024/05/15,12:20,0.492,0.753,0.476,0.920,0.666,0.309,0.543,0.508,���쓌,3.3,��
2024/05/15,12:30,0.490,0.752,0.475,0.923,0.667,0.308,0.542,0.507,���쓌,3.5,��
2024/05/15,12:40,0.494,0.751,0.475,0.921,0.667,0.310,0.543,0.507,��쓌,2.6,��
2024/05/15,12:50,0.493,0.751,0.477,0.920,0.666,0.308,0.543,0.509,�쓌,3.4,��
2024/05/15,13:00,0.492,0.752,0.477,0.920,0.668,0.307,0.544,0.507,�쓌,3.5,��
2024/05/15,13:10,0.492,0.752,0.476,0.921,0.666,0.309,0.545,0.509,��쓌,4.4,��
2024/05/15,13:20,0.493,0.752,0.477,0.919,0.667,0.309,0.544,0.509,��쓌,4.5,��
2024/05/15,13:30,0.491,0.751,0.477,0.919,0.667,0.309,0.544,0.508,��쓌,5.0,��
2024/05/15,13:40,0.493,0.753,0.476,0.921,0.668,0.309,0.543,0.509,��쓌,5.5,��
2024/05/15,13:50,0.493,0.754,0.477,0.922,0.667,0.307,0.545,0.507,��쓌,6.9,��
2024/05/15,14:00,0.493,0.752,0.476,0.921,0.666,0.310,0.543,0.508,��쓌,7.2,��
2024/05/15,14:10,0.493,0.753,0.476,0.920,0.667,0.310,0.544,0.508,��쓌,7.8,��
2024/05/15,14:20,0.492,0.753,0.476,0.923,0.668,0.309,0.544,0.508,��쓌,8.0,��
2024/05/15,14:30,0.494,0.752,0.478,0.920,0.668,0.310,0.545,0.508,��쓌,7.0,��
2024/05/15,14:40,0.492,0.752,0.478,0.921,0.666,0.309,0.545,0.509,��쓌,6.4,��
2024/05/15,14:50,0.493,0.753,0.476,0.922,0.666,0.309,0.545,0.506,��,6.8,��
2024/05/15,15:00,0.492,0.754,0.477,0.923,0.669,0.310,0.544,0.508,��쓌,8.8,��
2024/05/15,15:10,0.493,0.752,0.475,0.923,0.668,0.310,0.544,0.507,��,7.8,��
2024/05/15,15:20,0.493,0.753,0.476,0.924,0.669,0.310,0.545,0.508,��쓌,7.0,��
2024/05/15,15:30,0.494,0.754,0.478,0.922,0.670,0.309,0.544,0.508,��쓌,7.7,��
2024/05/15,15:40,0.492,0.752,0.477,0.924,0.669,0.310,0.543,0.508,��쓌,9.0,��
2024/05/15,15:50,0.493,0.753,0.478,0.922,0.667,0.310,0.543,0.508,��쓌,7.6,��
2024/05/15,16:00,0.493,0.753,0.478,0.921,0.668,0.309,0.543,0.507,��쓌,9.7,��
2024/05/15,16:10,0.494,0.755,0.477,0.925,0.667,0.311,0.543,0.507,��쓌,8.9,��
2024/05/15,16:20,0.493,0.754,0.476,0.922,0.668,0.311,0.544,0.509,��쓌,11.0,��
2024/05/15,16:30,0.493,0.754,0.477,0.923,0.668,0.309,0.543,0.507,��쓌,9.8,��
2024/05/15,16:40,0.493,0.754,0.478,0.924,0.669,0.308,0.541,0.507,��쓌,9.8,��
2024/05/15,16:50,0.494,0.755,0.477,0.925,0.668,0.309,0.542,0.508,��쓌,11.1,��
2024/05/15,17:00,0.494,0.753,0.476,0.921,0.669,0.310,0.542,0.508,��쓌,11.3,��
2024/05/15,17:10,0.493,0.754,0.475,0.925,0.669,0.310,0.542,0.507,��쓌,12.1,��
2024/05/15,17:20,0.493,0.754,0.475,0.926,0.669,0.309,0.543,0.508,��쓌,11.0,��
2024/05/15,17:30,0.493,0.754,0.476,0.927,0.668,0.309,0.541,0.508,��쓌,11.6,��
2024/05/15,17:40,0.492,0.754,0.476,0.928,0.668,0.310,0.541,0.507,��,10.5,��
2024/05/15,17:50,0.492,0.753,0.477,0.927,0.668,0.309,0.542,0.507,��쓌,10.9,��
2024/05/15,18:00,0.493,0.753,0.476,0.928,0.669,0.310,0.541,0.507,��,11.9,��
2024/05/15,18:10,0.494,0.755,0.476,0.928,0.667,0.309,0.544,0.507,��,10.3,��
2024/05/15,18:20,0.494,0.755,0.476,0.930,0.669,0.309,0.542,0.508,��,9.5,��
2024/05/15,18:30,0.492,0.752,0.476,0.930,0.670,0.309,0.542,0.510,��,10.7,��
2024/05/15,18:40,0.494,0.756,0.476,0.929,0.670,0.310,0.543,0.510,��,9.0,��
2024/05/15,18:50,0.493,0.755,0.476,0.928,0.668,0.310,0.542,0.510,��,9.1,��
2024/05/15,19:00,0.494,0.754,0.477,0.930,0.669,0.311,0.543,0.510,��,7.9,��
2024/05/15,19:10,0.493,0.755,0.478,0.928,0.667,0.310,0.543,0.510,��,8.0,��
2024/05/15,19:20,0.493,0.754,0.479,0.928,0.668,0.309,0.543,0.511,��,8.2,��
2024/05/15,19:30,0.494,0.758,0.478,0.926,0.669,0.311,0.543,0.510,��,7.5,��
2024/05/15,19:40,0.494,0.757,0.479,0.927,0.671,0.309,0.543,0.512,��,9.4,��
2024/05/15,19:50,0.495,0.757,0.477,0.925,0.671,0.310,0.544,0.510,��,8.8,��
2024/05/15,20:00,0.497,0.759,0.478,0.926,0.672,0.311,0.544,0.511,��,6.7,��
2024/05/15,20:10,0.493,0.759,0.479,0.927,0.672,0.310,0.544,0.510,��,8.8,��
2024/05/15,20:20,0.494,0.759,0.479,0.927,0.671,0.311,0.543,0.509,��,8.6,��
2024/05/15,20:30,0.493,0.758,0.480,0.929,0.673,0.311,0.543,0.511,��,8.4,��
2024/05/15,20:40,0.495,0.757,0.479,0.930,0.669,0.310,0.545,0.511,��,10.3,��
2024/05/15,20:50,0.494,0.757,0.480,0.928,0.670,0.309,0.544,0.510,��,7.8,��
2024/05/15,21:00,0.495,0.758,0.480,0.929,0.671,0.310,0.544,0.512,��,7.2,��
2024/05/15,21:10,0.494,0.759,0.481,0.928,0.671,0.310,0.545,0.509,��,8.7,��
2024/05/15,21:20,0.495,0.758,0.479,0.926,0.671,0.311,0.545,0.510,��,8.7,��
2024/05/15,21:30,0.494,0.755,0.478,0.929,0.670,0.311,0.545,0.510,��,11.3,��
2024/05/15,21:40,0.495,0.758,0.480,0.929,0.672,0.310,0.544,0.510,��,9.9,��
2024/05/15,21:50,0.494,0.758,0.480,0.927,0.671,0.312,0.543,0.513,��,9.2,��
2024/05/15,22:00,0.494,0.759,0.479,0.929,0.670,0.310,0.545,0.511,��,8.3,��
2024/05/15,22:10,0.493,0.760,0.478,0.927,0.671,0.311,0.544,0.511,��,9.8,��
2024/05/15,22:20,0.495,0.758,0.480,0.929,0.671,0.310,0.546,0.511,��,9.4,��
2024/05/15,22:30,0.493,0.759,0.479,0.927,0.671,0.311,0.544,0.512,��,9.1,��
2024/05/15,22:40,0.494,0.758,0.479,0.927,0.669,0.310,0.544,0.511,��,8.3,��
2024/05/15,22:50,0.493,0.759,0.478,0.927,0.670,0.311,0.544,0.511,��,7.5,��
2024/05/15,23:00,0.494,0.758,0.479,0.928,0.668,0.309,0.544,0.512,��,8.0,��
2024/05/15,23:10,0.494,0.757,0.479,0.929,0.670,0.311,0.544,0.510,��,8.5,�L
2024/05/15,23:20,0.495,0.757,0.479,0.930,0.672,0.311,0.544,0.510,��,8.7,�L
2024/05/15,23:30,0.493,0.759,0.480,0.930,0.672,0.312,0.543,0.511,��,9.3,�L
2024/05/15,23:40,0.495,0.759,0.480,0.930,0.672,0.311,0.544,0.509,��,8.2,�L
2024/05/15,23:50,0.496,0.757,0.481,0.930,0.671,0.312,0.543,0.510,��,8.3,�L
